Massena, NY

11:25 AM EDT on September 17, 2019 (GMT -0400)
Massena International-Richards

Weather History for KMSS - July, 2019

Change the Weather History Date:

Saturday, July 27, 2019

  Actual Average Record
Temperature  
Mean Temperature 73 °F 69 °F  
Max Temperature 90 °F 80 °F 96 °F (1949)
Min Temperature 55 °F 58 °F 40 °F (2001)
Degree Days  
Heating Degree Days 0 1  
Month to date heating degree days 1 27  
Since 1 June heating degree days 98 123  
Since 1 July heating degree days 1 27  
Cooling Degree Days 8 5  
Month to date cooling degree days 189 132  
Year to date cooling degree days 248 221  
Since 1 June cooling degree days 247 207  
Growing Degree Days 22 (Base 50)    
Moisture  
Dew Point 59 °F    
Average Humidity 65    
Maximum Humidity 93    
Minimum Humidity 36    
Precipitation  
Precipitation 0.00 in 0.12 in 0.64 in (1949)
Month to date precipitation 1.06 3.10  
Year to date precipitation 15.55 18.55  
Sea Level Pressure  
Sea Level Pressure 30.17 in    
Wind  
Wind Speed 6 mph (SW)    
Max Wind Speed 17 mph    
Max Gust Speed 21 mph    
Visibility 9 miles    
Events      
T = Trace of Precipitation, MM = Missing Value Source: NWS Daily Summary

Daily Weather History Graph

Daily Weather History Graph

Search for Another Location

Airport or City:

Astronomy

Jul. 27, 2019 Rise Set
Actual Time 5:39 AM EDT 8:32 PM EDT
Civil Twilight 5:04 AM EDT 9:06 PM EDT
Nautical Twilight 4:20 AM EDT 9:49 PM EDT
Astronomical Twilight 3:29 AM EDT 10:41 PM EDT
Moon 1:26 AM EDT (7/27) 4:20 PM EDT (7/27)
Length of Visible Light 16h 01m
Length of Day
14h 52m
Waning Crescent, 24% of the Moon is Illuminated
Jul 27
Waning Crescent
Jul 31
New
Aug 7
First Quarter
Aug 15
Full
Aug 23
Last Quarter

Hourly Weather History & Observations

Time (EDT) Temp. Heat Index Dew Point Humidity Pressure Visibility Wind Dir Wind Speed Gust Speed Precip Events Conditions
12:53 AM 59.0 °F - 55.9 °F 90% 30.23 in 9.0 mi Calm Calm - N/A   Clear
1:02 AM 59.0 °F - 55.9 °F 90% 30.23 in 1.5 mi Calm Calm - N/A   Clear
1:11 AM 59.0 °F - 57.0 °F 93% 30.23 in 3.0 mi Calm Calm - N/A   Clear
1:53 AM 57.9 °F - 55.9 °F 93% 30.23 in 10.0 mi Calm Calm - N/A   Clear
2:53 AM 57.9 °F - 55.9 °F 93% 30.23 in 10.0 mi Calm Calm - N/A   Clear
3:53 AM 57.0 °F - 55.0 °F 93% 30.23 in 5.0 mi Calm Calm - N/A   Clear
4:02 AM 57.0 °F - 55.0 °F 93% 30.23 in 1.8 mi Calm Calm - N/A   Clear
4:05 AM 57.0 °F - 55.0 °F 93% 30.23 in 3.0 mi Calm Calm - N/A   Clear
4:53 AM 57.0 °F - 55.0 °F 93% 30.23 in 10.0 mi Calm Calm - N/A   Clear
5:53 AM 55.0 °F - 53.1 °F 93% 30.24 in 10.0 mi Calm Calm - N/A   Clear
6:53 AM 60.1 °F - 55.9 °F 86% 30.24 in 10.0 mi Calm Calm - N/A   Clear
7:53 AM 68.0 °F - 61.0 °F 78% 30.24 in 10.0 mi Calm Calm - N/A   Clear
8:53 AM 73.9 °F - 64.0 °F 71% 30.24 in 10.0 mi Calm Calm - N/A   Clear
9:53 AM 80.1 °F 81.9 °F 64.9 °F 60% 30.22 in 10.0 mi SSE 5.8 mph - N/A   Clear
10:53 AM 82.9 °F 84.6 °F 64.9 °F 54% 30.21 in 10.0 mi SW 10.4 mph - N/A   Clear
11:53 AM 86.0 °F 86.8 °F 63.0 °F 46% 30.19 in 10.0 mi South 12.7 mph - N/A   Clear
12:53 PM 87.1 °F 87.0 °F 61.0 °F 41% 30.17 in 10.0 mi SSW 9.2 mph - N/A   Clear
1:53 PM 89.1 °F 89.0 °F 61.0 °F 39% 30.14 in 10.0 mi WSW 12.7 mph 19.6 mph N/A   Partly Cloudy
2:53 PM 88.0 °F 87.9 °F 61.0 °F 40% 30.12 in 10.0 mi SSW 10.4 mph 19.6 mph N/A   Clear
3:53 PM 86.0 °F 86.3 °F 62.1 °F 44% 30.10 in 10.0 mi SW 12.7 mph - N/A   Partly Cloudy
4:53 PM 88.0 °F 88.4 °F 62.1 °F 42% 30.08 in 10.0 mi WSW 12.7 mph - N/A   Clear
5:53 PM 87.1 °F 86.1 °F 57.9 °F 37% 30.06 in 10.0 mi WSW 10.4 mph - N/A   Clear
6:53 PM 84.9 °F 84.4 °F 59.0 °F 41% 30.06 in 10.0 mi WSW 15.0 mph 18.4 mph N/A   Clear
7:53 PM 81.0 °F 81.3 °F 59.0 °F 47% 30.06 in 10.0 mi SW 9.2 mph - N/A   Clear
8:53 PM 75.9 °F - 60.1 °F 58% 30.06 in 10.0 mi SSW 4.6 mph - N/A   Clear
9:53 PM 72.0 °F - 61.0 °F 68% 30.06 in 10.0 mi South 5.8 mph - N/A   Clear
10:53 PM 70.0 °F - 61.0 °F 73% 30.05 in 10.0 mi South 3.5 mph - N/A   Clear